Time_in_sec,gx,gy,gz
1326904170.12548232,0.01876353,-0.02094839,-0.99960447
1326904170.17763877,0.01875853,-0.02055276,-0.99961278
1326904170.22554684,0.01872986,-0.02031910,-0.99961809
1326904170.27546716,0.01882959,-0.02018286,-0.99961898
1326904170.32501841,0.01923034,-0.02048178,-0.99960527
1326904170.37753177,0.01908026,-0.02034890,-0.99961086
1326904170.42551827,0.01915812,-0.02033571,-0.99960964
1326904170.47767472,0.01909916,-0.02039187,-0.99960962
1326904170.52552080,0.01891935,-0.02032794,-0.99961434
1326904170.57767344,0.01922618,-0.02056801,-0.99960358
1326904170.62500668,0.01911884,-0.02045634,-0.99960793
1326904170.67755032,0.01907682,-0.02041647,-0.99960955
1326904170.72556901,0.01913529,-0.02032501,-0.99961029
1326904170.77751255,0.01903254,-0.02030988,-0.99961256
1326904170.82555342,0.01912216,-0.02060105,-0.99960489
1326904170.87765765,0.01918310,-0.02048363,-0.99960614
1326904170.92552233,0.01916825,-0.02041675,-0.99960779
1326904170.96957350,0.01903851,-0.02039129,-0.99961079
1326904171.02550650,0.01910106,-0.02025062,-0.99961246
1326904171.07865548,0.01892993,-0.02009945,-0.99961876
1326904171.12452936,0.01898351,-0.02009276,-0.99961788
1326904171.17659211,0.01860927,-0.01995457,-0.99962769
1326904171.22551608,0.01848880,-0.02017972,-0.99962540
1326904171.27527308,0.01828315,-0.02022950,-0.99962818
1326904171.32547903,0.01800383,-0.02015358,-0.99963478
1326904171.37760210,0.01796974,-0.02000025,-0.99963847
1326904171.42548943,0.01795791,-0.02004955,-0.99963770
1326904171.47752500,0.01779186,-0.01998956,-0.99964187
1326904171.52535629,0.01783748,-0.01989159,-0.99964301
1326904171.58052778,0.01762775,-0.02003292,-0.99964391
1326904171.62551618,0.01735693,-0.01988509,-0.99965160
1326904171.68014193,0.01729709,-0.02000608,-0.99965022
1326904171.71758366,0.01714172,-0.02015792,-0.99964985
1326904171.77754641,0.01711729,-0.02017172,-0.99964999
1326904171.82455444,0.01669128,-0.02043479,-0.99965185
1326904171.87767577,0.01634319,-0.02044713,-0.99965735
1326904171.92869329,0.01633482,-0.02042912,-0.99965785
1326904171.96957684,0.01620235,-0.02058918,-0.99965673
1326904172.02921510,0.01609111,-0.02077276,-0.99965472
1326904172.08063936,0.01622956,-0.02093278,-0.99964915
1326904172.12551188,0.01599476,-0.02075832,-0.99965657
1326904172.17724228,0.01615319,-0.02073100,-0.99965459
1326904172.22925115,0.01616633,-0.02041673,-0.99966085
1326904172.27751398,0.01610223,-0.02053741,-0.99965941
1326904172.32551169,0.01612659,-0.02069435,-0.99965578
1326904172.37754488,0.01597568,-0.02053782,-0.99966143
1326904172.42552614,0.01597961,-0.02054300,-0.99966126
1326904172.47719359,0.01599319,-0.02053622,-0.99966118
1326904172.52505302,0.01607515,-0.02040888,-0.99966248
1326904172.57719040,0.01615589,-0.02084874,-0.99965210
1326904172.62965155,0.01604513,-0.02059950,-0.99965905
1326904172.67755795,0.01606817,-0.02065383,-0.99965756
1326904172.71655536,0.01606222,-0.02059326,-0.99965890
1326904172.77750158,0.01582033,-0.02071650,-0.99966021
1326904172.82508945,0.01589762,-0.02021689,-0.99966922
1326904172.87704039,0.01595897,-0.02021358,-0.99966831
1326904172.92548299,0.01598605,-0.02019978,-0.99966815
1326904172.96493745,0.01605364,-0.02024548,-0.99966614
1326904173.02905202,0.01597744,-0.02022032,-0.99966787
1326904173.08306408,0.01575653,-0.02036332,-0.99966848
1326904173.12855983,0.01573149,-0.02022054,-0.99967177
1326904173.18054056,0.01530981,-0.02020240,-0.99967868
1326904173.22552109,0.01554392,-0.02012040,-0.99967673
1326904173.27766657,0.01544739,-0.02006418,-0.99967935
1326904173.32578158,0.01529105,-0.02013991,-0.99968023
1326904173.37765718,0.01547330,-0.02019258,-0.99967637
1326904173.42478585,0.01528050,-0.02021391,-0.99967890
1326904173.47692537,0.01557691,-0.02003501,-0.99967793
1326904173.52552938,0.01560796,-0.02015594,-0.99967501
1326904173.57661629,0.01555503,-0.02027329,-0.99967346
1326904173.62498593,0.01546071,-0.02025043,-0.99967539
1326904173.67665887,0.01551830,-0.02025719,-0.99967436
1326904173.71757436,0.01540164,-0.02021425,-0.99967703
1326904173.77662826,0.01534874,-0.02028052,-0.99967651
1326904173.82564020,0.01598094,-0.02058702,-0.99966033
1326904173.87756610,0.01591522,-0.02066105,-0.99965986
1326904173.92459059,0.01594392,-0.02073603,-0.99965785
1326904173.96467137,0.01599342,-0.02070699,-0.99965766
1326904174.02450895,0.01589775,-0.02076972,-0.99965788
1326904174.07753873,0.01570300,-0.02040176,-0.99966854
1326904174.12551975,0.01577260,-0.02030636,-0.99966938
1326904174.17449832,0.01579076,-0.02005952,-0.99967408
1326904174.22505140,0.01563066,-0.02002237,-0.99967734
1326904174.27751231,0.01537432,-0.02008255,-0.99968011
1326904174.32449460,0.01551932,-0.02015763,-0.99967636
1326904174.37773347,0.01568465,-0.02021658,-0.99967259
1326904174.42486691,0.01553355,-0.02024751,-0.99967432
1326904174.47657847,0.01540574,-0.01990754,-0.99968313
1326904174.52554798,0.01531007,-0.02005542,-0.99968164
1326904174.57736850,0.01524308,-0.02040608,-0.99967557
1326904174.62453389,0.01535006,-0.02024763,-0.99967715
1326904174.67976236,0.01531773,-0.02040775,-0.99967439
1326904174.71755719,0.01544366,-0.02021934,-0.99967628
1326904174.78058529,0.01556406,-0.02015808,-0.99967565
1326904174.82552886,0.01539889,-0.01998973,-0.99968159
1326904174.88061428,0.01546124,-0.01994798,-0.99968146
1326904174.92549610,0.01567729,-0.02019447,-0.99967315
1326904174.96556020,0.01556325,-0.02015087,-0.99967581
1326904175.02960610,0.01550788,-0.02003270,-0.99967905
1326904175.07751822,0.01576696,-0.02059238,-0.99966362
1326904175.12854791,0.01580759,-0.02040293,-0.99966686
1326904175.17655849,0.01581614,-0.02042565,-0.99966627
1326904175.22954631,0.01592828,-0.02021784,-0.99966871
1326904175.27662659,0.01597700,-0.02023601,-0.99966756
1326904175.32550931,0.01550187,-0.02023502,-0.99967507
1326904175.37712622,0.01554055,-0.01999000,-0.99967939
1326904175.42512512,0.01568328,-0.02013949,-0.99967416
1326904175.47709155,0.01570308,-0.02017312,-0.99967318
1326904175.52510762,0.01570633,-0.02032694,-0.99967001
1326904175.58053660,0.01498203,-0.02036650,-0.99968032
1326904175.62506032,0.01500622,-0.02027676,-0.99968178
1326904175.67656302,0.01495855,-0.02022940,-0.99968346
1326904175.72564745,0.01474832,-0.01992707,-0.99969265
1326904175.77765465,0.01479872,-0.01970139,-0.99969638
1326904175.82536817,0.01514710,-0.02001329,-0.99968497
1326904175.87751842,0.01501806,-0.02014864,-0.99968420
1326904175.92958188,0.01476607,-0.02023753,-0.99968615
1326904175.96508074,0.01460796,-0.02011012,-0.99969105
1326904176.02954412,0.01437708,-0.02001598,-0.99969628
1326904176.07663846,0.01453661,-0.02065951,-0.99968088
1326904176.12548470,0.01440458,-0.02055508,-0.99968495
1326904176.17654419,0.01440475,-0.02046351,-0.99968682
1326904176.22546101,0.01445572,-0.02047530,-0.99968585
1326904176.27753901,0.01462816,-0.02059293,-0.99968092
1326904176.32858372,0.01449377,-0.02123560,-0.99966944
1326904176.38157892,0.01455372,-0.02129347,-0.99966733
1326904176.42554712,0.01457479,-0.02114883,-0.99967010
1326904176.46555614,0.01454089,-0.02114283,-0.99967072
1326904176.52548575,0.01479291,-0.02123527,-0.99966506
1326904176.57751083,0.01467624,-0.02163391,-0.99965823
1326904176.62878942,0.01472656,-0.02164843,-0.99965718
1326904176.67897916,0.01479717,-0.02154931,-0.99965828
1326904176.71665335,0.01474672,-0.02150668,-0.99965994
1326904176.77747416,0.01476449,-0.02131078,-0.99966387
1326904176.82551980,0.01501420,-0.02158256,-0.99965432
1326904176.87654829,0.01484813,-0.02158108,-0.99965684
1326904176.92552137,0.01474739,-0.02156874,-0.99965859
1326904176.97766209,0.01470606,-0.02143822,-0.99966201
1326904177.02554560,0.01474997,-0.02160513,-0.99965777
1326904177.07761264,0.01484562,-0.02171367,-0.99965400
1326904177.12452841,0.01491185,-0.02161534,-0.99965515
1326904177.17680931,0.01495651,-0.02170900,-0.99965245
1326904177.22524810,0.01487885,-0.02160389,-0.99965589
1326904177.27662253,0.01483331,-0.02182479,-0.99965177
1326904177.32549787,0.01413877,-0.02189762,-0.99966024
1326904177.37659073,0.01408977,-0.02173566,-0.99966446
1326904177.42454958,0.01413617,-0.02160736,-0.99966659
1326904177.47758222,0.01392643,-0.02167718,-0.99966802
1326904177.52552128,0.01394276,-0.02170291,-0.99966724
1326904177.57750535,0.01331182,-0.02194616,-0.99967053
1326904177.62521434,0.01333229,-0.02189782,-0.99967131
1326904177.67741275,0.01341633,-0.02189591,-0.99967023
1326904177.71752071,0.01325760,-0.02192869,-0.99967163
1326904177.78062987,0.01327910,-0.02177339,-0.99967474
1326904177.82525802,0.01301992,-0.02168618,-0.99968004
1326904177.87749887,0.01312666,-0.02156447,-0.99968128
1326904177.92919493,0.01318319,-0.02172061,-0.99967716
1326904177.96522713,0.01314358,-0.02179508,-0.99967606
1326904178.02927876,0.01327705,-0.02178917,-0.99967442
1326904178.07756972,0.01349096,-0.02196138,-0.99966779
1326904178.12551451,0.01341381,-0.02187484,-0.99967073
1326904178.17756128,0.01351534,-0.02169112,-0.99967336
1326904178.22863054,0.01349391,-0.02179930,-0.99967130
1326904178.27755356,0.01354126,-0.02162917,-0.99967435
1326904178.32867098,0.01365238,-0.02201017,-0.99966453
1326904178.38060641,0.01358518,-0.02206125,-0.99966432
1326904178.42507696,0.01364485,-0.02189181,-0.99966723
1326904178.47722769,0.01346690,-0.02179069,-0.99967185
1326904178.52550125,0.01335893,-0.02174798,-0.99967423
1326904178.56550217,0.01288862,-0.02169326,-0.99968159
1326904178.62552881,0.01280460,-0.02187497,-0.99967871
1326904178.67751718,0.01295210,-0.02182877,-0.99967782
1326904178.72558212,0.01287286,-0.02182438,-0.99967894
1326904178.78454614,0.01284995,-0.02185972,-0.99967846
1326904178.82955146,0.01291287,-0.02222138,-0.99966968
1326904178.87765551,0.01284697,-0.02225206,-0.99966985
1326904178.92555046,0.01291146,-0.02216009,-0.99967106
1326904178.96968794,0.01282494,-0.02217680,-0.99967180
1326904179.02488065,0.01287149,-0.02206055,-0.99967378
1326904179.07749724,0.01308177,-0.02220819,-0.99966778
1326904179.12855434,0.01297724,-0.02204218,-0.99967281
1326904179.17753220,0.01301704,-0.02194940,-0.99967434
1326904179.22545338,0.01301808,-0.02201919,-0.99967279
1326904179.27764058,0.01284980,-0.02186721,-0.99967830
1326904179.32557654,0.01273422,-0.02196212,-0.99967770
1326904179.37684202,0.01255128,-0.02182730,-0.99968297
1326904179.42955160,0.01259902,-0.02172066,-0.99968469
1326904179.47756171,0.01280452,-0.02173640,-0.99968174
1326904179.52554536,0.01284806,-0.02181318,-0.99967950
1326904179.57751942,0.01322774,-0.02176356,-0.99967563
1326904179.62478971,0.01329619,-0.02184064,-0.99967305
1326904179.67769194,0.01312219,-0.02147579,-0.99968325
1326904179.71750522,0.01320879,-0.02146919,-0.99968225
1326904179.77769852,0.01335096,-0.02126618,-0.99968470
1326904179.82560635,0.01350964,-0.02193664,-0.99966808
1326904179.88154960,0.01368360,-0.02186399,-0.99966731
1326904179.92465258,0.01357848,-0.02172906,-0.99967168
1326904179.96862411,0.01342555,-0.02164400,-0.99967559
1326904180.02548528,0.01346251,-0.02161476,-0.99967573
1326904180.07663083,0.01351295,-0.02171313,-0.99967292
1326904180.12557173,0.01344117,-0.02183642,-0.99967120
1326904180.17658448,0.01346902,-0.02192376,-0.99966891
1326904180.22468948,0.01350337,-0.02198820,-0.99966703
1326904180.27753234,0.01349689,-0.02182802,-0.99967063
1326904180.32557702,0.01381693,-0.02194942,-0.99966360
1326904180.38057780,0.01381449,-0.02197615,-0.99966305
1326904180.42499948,0.01379030,-0.02187558,-0.99966559
1326904180.47903633,0.01390662,-0.02192352,-0.99966293
1326904180.52559042,0.01406454,-0.02203163,-0.99965834
1326904180.58058119,0.01413173,-0.02206705,-0.99965661
1326904180.62462044,0.01426833,-0.02219685,-0.99965180
1326904180.68151474,0.01404890,-0.02201655,-0.99965889
1326904180.71662807,0.01412754,-0.02208083,-0.99965637
1326904180.78056335,0.01416033,-0.02189269,-0.99966004
1326904180.82454848,0.01419311,-0.02209489,-0.99965513
1326904180.87747717,0.01417939,-0.02186888,-0.99966029
1326904180.92559624,0.01417362,-0.02175248,-0.99966291
1326904180.96557331,0.01408542,-0.02172330,-0.99966479
1326904181.02550173,0.01432556,-0.02159008,-0.99966427
1326904181.07751632,0.01412881,-0.02154280,-0.99966809
1326904181.12865424,0.01412211,-0.02147219,-0.99966970
1326904181.17923284,0.01401923,-0.02147103,-0.99967117
1326904181.21756506,0.01383147,-0.02148421,-0.99967351
1326904181.27651215,0.01396935,-0.02119602,-0.99967774
1326904181.32556486,0.01360905,-0.02147426,-0.99967677
1326904181.37715101,0.01360035,-0.02162667,-0.99967361
1326904181.42518258,0.01366739,-0.02147891,-0.99967588
1326904181.47752523,0.01385780,-0.02165313,-0.99966950
1326904181.52554727,0.01377593,-0.02167946,-0.99967006
1326904181.57679272,0.01379563,-0.02162818,-0.99967090
1326904181.62958932,0.01398870,-0.02159114,-0.99966901
1326904181.67649531,0.01382752,-0.02152460,-0.99967269
1326904181.71750712,0.01372935,-0.02135562,-0.99967767
1326904181.77651167,0.01381146,-0.02120194,-0.99967981
1326904181.82960939,0.01354055,-0.02094861,-0.99968886
1326904181.87570214,0.01341008,-0.02077821,-0.99969417
1326904181.92969298,0.01328355,-0.02084456,-0.99969448
1326904181.96885872,0.01335552,-0.02094078,-0.99969151
1326904182.02890730,0.01332411,-0.02084464,-0.99969394
1326904182.07679701,0.01321996,-0.02023551,-0.99970784
1326904182.12550950,0.01318300,-0.02011830,-0.99971069
1326904182.17762637,0.01310686,-0.02021340,-0.99970977
1326904182.22563028,0.01320215,-0.02019621,-0.99970887
1326904182.27754641,0.01348451,-0.01994356,-0.99971017
1326904182.32610011,0.01401896,-0.01991834,-0.99970332
1326904182.37694716,0.01382379,-0.01974250,-0.99970953
1326904182.42478037,0.01403693,-0.01972815,-0.99970684
1326904182.47684026,0.01389052,-0.01977461,-0.99970797
1326904182.52553916,0.01396542,-0.01957305,-0.99971089
1326904182.57756591,0.01460018,-0.01953504,-0.99970256
1326904182.62477732,0.01458425,-0.01943033,-0.99970484
1326904182.67923999,0.01474815,-0.01955285,-0.99970004
1326904182.71655512,0.01475153,-0.01963370,-0.99969841
1326904182.78154230,0.01460856,-0.01950307,-0.99970307
1326904182.82550693,0.01508679,-0.01961085,-0.99969385
1326904182.87662554,0.01491942,-0.01925556,-0.99970327
1326904182.92552185,0.01489974,-0.01908186,-0.99970690
1326904182.96552253,0.01487281,-0.01915526,-0.99970589
1326904183.02545452,0.01492096,-0.01910849,-0.99970607
1326904183.07756352,0.01535903,-0.02033773,-0.99967519
1326904183.12462020,0.01517609,-0.02008365,-0.99968312
1326904183.17752385,0.01519412,-0.02003784,-0.99968376
1326904183.22553253,0.01500875,-0.02012109,-0.99968489
1326904183.27744699,0.01520862,-0.02012698,-0.99968175
1326904183.32548428,0.01545559,-0.02053639,-0.99966964
1326904183.37752962,0.01531295,-0.02048643,-0.99967286
1326904183.42456269,0.01519883,-0.02032249,-0.99967794
1326904183.47757053,0.01536990,-0.02032082,-0.99967536
1326904183.52573466,0.01546446,-0.02032877,-0.99967374
1326904183.57652545,0.01580416,-0.02017460,-0.99967155
1326904183.62549877,0.01567106,-0.02000987,-0.99967696
1326904183.67662454,0.01579160,-0.02000563,-0.99967515
1326904183.71751404,0.01564840,-0.01998517,-0.99967781
1326904183.77745628,0.01571429,-0.01990770,-0.99967832
1326904183.82554460,0.01570939,-0.01998364,-0.99967688
1326904183.87750912,0.01601653,-0.01990906,-0.99967350
1326904183.92872357,0.01598041,-0.01987507,-0.99967475
1326904183.96921062,0.01605744,-0.01970924,-0.99967680
1326904184.02864671,0.01620376,-0.01954540,-0.99967766
1326904184.07722235,0.01624495,-0.01956403,-0.99967662
1326904184.12551785,0.01597155,-0.01949647,-0.99968235
1326904184.17722225,0.01599223,-0.01947682,-0.99968240
1326904184.22535276,0.01583453,-0.01910092,-0.99969216
1326904184.27771997,0.01598886,-0.01906327,-0.99969043
1326904184.32551908,0.01590994,-0.01957655,-0.99968177
1326904184.37754631,0.01603441,-0.01967417,-0.99967786
1326904184.42856693,0.01611777,-0.01964304,-0.99967713
1326904184.47703862,0.01610037,-0.01970081,-0.99967628
1326904184.52549577,0.01603216,-0.01975834,-0.99967624
1326904184.57662845,0.01669321,-0.01991523,-0.99966230
1326904184.62954330,0.01669225,-0.01981566,-0.99966430
1326904184.67749047,0.01686549,-0.01981001,-0.99966150
1326904184.72963881,0.01683332,-0.01986471,-0.99966096
1326904184.77751827,0.01683011,-0.01990610,-0.99966019
1326904184.82488942,0.01680392,-0.01989788,-0.99966079
1326904184.87763476,0.01674281,-0.01980503,-0.99966366
1326904184.92550015,0.01690894,-0.01984164,-0.99966014
1326904184.96552825,0.01681618,-0.01984405,-0.99966166
1326904185.02869821,0.01693035,-0.01983331,-0.99965994
1326904185.07751393,0.01675723,-0.02005477,-0.99965844
1326904185.12553477,0.01694423,-0.01988575,-0.99965867
1326904185.17747188,0.01685213,-0.01981485,-0.99966163
1326904185.22551131,0.01711313,-0.01975970,-0.99965829
1326904185.27764559,0.01713217,-0.01981429,-0.99965688
1326904185.32555532,0.01719277,-0.01977631,-0.99965659
1326904185.37680435,0.01702082,-0.01977796,-0.99965950
1326904185.42851663,0.01716337,-0.01973446,-0.99965793
1326904185.47749424,0.01701497,-0.01974135,-0.99966033
1326904185.52871299,0.01702611,-0.01961443,-0.99966264
1326904185.58154297,0.01702824,-0.01938473,-0.99966708
1326904185.62467170,0.01727834,-0.01932278,-0.99966399
1326904185.67765355,0.01744472,-0.01940081,-0.99965959
1326904185.72548318,0.01742670,-0.01945246,-0.99965890
1326904185.77655268,0.01748044,-0.01952753,-0.99965650
1326904185.82464385,0.01796505,-0.01950897,-0.99964827
1326904185.87751555,0.01809956,-0.01944510,-0.99964708
1326904185.92466164,0.01803023,-0.01935208,-0.99965014
1326904185.96609187,0.01790312,-0.01921271,-0.99965512
1326904186.02463388,0.01784454,-0.01925400,-0.99965537
1326904186.07752991,0.01744547,-0.01922964,-0.99966288
1326904186.12551713,0.01752114,-0.01922831,-0.99966158
1326904186.17753482,0.01744204,-0.01931423,-0.99966131
1326904186.22453856,0.01734311,-0.01924587,-0.99966435
1326904186.27838206,0.01753136,-0.01947444,-0.99965664
1326904186.32448339,0.01705724,-0.02015376,-0.99965138
1326904186.37752390,0.01719803,-0.02017815,-0.99964847
1326904186.42452025,0.01724629,-0.02021710,-0.99964685
1326904186.47456670,0.01741143,-0.02006759,-0.99964700
1326904186.52551126,0.01736209,-0.02000076,-0.99964920
1326904186.57653451,0.01729115,-0.02011850,-0.99964807
1326904186.62578106,0.01743688,-0.02015778,-0.99964475
1326904186.67698431,0.01734980,-0.02017227,-0.99964597
1326904186.71752858,0.01729216,-0.02017740,-0.99964686
1326904186.77652454,0.01719195,-0.02029549,-0.99964620
1326904186.82953167,0.01727137,-0.02045973,-0.99964149
1326904186.87706661,0.01719387,-0.02040097,-0.99964402
1326904186.92548490,0.01708952,-0.02037756,-0.99964629
1326904186.96578813,0.01700505,-0.02048410,-0.99964555
1326904187.02517247,0.01687893,-0.02055964,-0.99964614
1326904187.07751417,0.01660848,-0.02058633,-0.99965012
1326904187.12917805,0.01658317,-0.02047136,-0.99965290
1326904187.17750406,0.01659642,-0.02046782,-0.99965275
1326904187.22952175,0.01654796,-0.02045944,-0.99965373
1326904187.27684236,0.01669317,-0.02036713,-0.99965320
1326904187.32552695,0.01729383,-0.02084871,-0.99963306
1326904187.37707710,0.01720085,-0.02092409,-0.99963309
1326904187.42909765,0.01705347,-0.02083325,-0.99963751
1326904187.47750926,0.01710552,-0.02076929,-0.99963795
1326904187.52555227,0.01719258,-0.02054313,-0.99964113
1326904187.57752156,0.01714568,-0.02088976,-0.99963476
1326904187.62952280,0.01732395,-0.02079774,-0.99963360
1326904187.67696214,0.01724858,-0.02091962,-0.99963236
1326904187.72551131,0.01743835,-0.02094401,-0.99962856
1326904187.77763343,0.01749652,-0.02105475,-0.99962521
1326904187.82565069,0.01770147,-0.02128515,-0.99961673
1326904187.87751031,0.01798604,-0.02111212,-0.99961532
1326904187.92547917,0.01790338,-0.02081186,-0.99962310
1326904187.96558404,0.01799599,-0.02078504,-0.99962199
1326904188.02551579,0.01802543,-0.02082314,-0.99962067
